| time (UTC) | temp F | wind direction | speed MPH | gust MPH | rain 1hr in | rain 24hr in | rain mn in | humidity % | barometer mb |
| 20260504202412 | 62 | 125 | 2.0 | 6.0 | 0.00 | 0.01 | 0.01 | 42 | 1009.7 |
| 20260504201909 | 61 | 300 | 1.0 | 4.0 | 0.00 | 0.01 | 0.01 | 45 | 1009.8 |
| 20260504201407 | 61 | 168 | 0.0 | 3.0 | 0.00 | 0.01 | 0.01 | 47 | 1010.2 |
| 20260504200904 | 61 | 17 | 3.0 | 6.0 | 0.00 | 0.01 | 0.01 | 47 | 1010.2 |
| 20260504200400 | 60 | 42 | 4.0 | 9.0 | 0.00 | 0.01 | 0.01 | 47 | 1010.2 |
| 20260504195857 | 60 | 11 | 4.0 | 9.0 | 0.00 | 0.01 | 0.01 | 45 | 1009.9 |
| 20260504195352 | 61 | 65 | 7.0 | 13.0 | 0.00 | 0.01 | 0.01 | 42 | 1010.1 |
| 20260504194849 | 60 | 2 | 6.0 | 10.0 | 0.00 | 0.01 | 0.01 | 48 | 1009.8 |
| 20260504194345 | 61 | 350 | 5.0 | 11.0 | 0.00 | 0.01 | 0.01 | 45 | 1009.9 |
| 20260504193841 | 60 | 347 | 2.0 | 4.0 | 0.00 | 0.01 | 0.01 | 47 | 1009.5 |
| 20260504193339 | 61 | 165 | 2.0 | 3.0 | 0.00 | 0.01 | 0.01 | 44 | 1009.5 |
| 20260504192838 | 60 | 190 | 1.0 | 3.0 | 0.00 | 0.01 | 0.01 | 45 | 1008.9 |
| 20260504192335 | 61 | 219 | 1.0 | 2.0 | 0.05 | 0.01 | 0.01 | 51 | 1009.0 |
| 20260504191833 | 60 | 20 | 2.0 | 6.0 | 0.05 | 0.01 | 0.01 | 52 | 1008.9 |
| 20260504191331 | 60 | 23 | 6.0 | 15.0 | 0.00 | 0.00 | 0.00 | 50 | 1009.0 |
| 20260504190826 | 66 | 355 | 6.0 | 13.0 | 0.00 | 0.00 | 0.00 | 39 | 1008.4 |
| 20260504190322 | 66 | 17 | 2.0 | 9.0 | 0.00 | 0.00 | 0.00 | 28 | 1008.3 |
| 20260504185818 | 66 | 12 | 4.0 | 9.0 | 0.00 | 0.00 | 0.00 | 27 | 1008.1 |
| 20260504185316 | 66 | 317 | 9.0 | 14.0 | 0.00 | 0.00 | 0.00 | 28 | 1008.2 |
| 20260504184812 | 68 | 356 | 13.0 | 16.0 | 0.00 | 0.00 | 0.00 | 25 | 1008.2 |
| 20260504184308 | 71 | 136 | 1.0 | 2.0 | 0.00 | 0.00 | 0.00 | 22 | 1008.3 |
| 20260504183804 | 71 | 195 | 1.0 | 2.0 | 0.00 | 0.00 | 0.00 | 23 | 1008.0 |
| 20260504183301 | 71 | 177 | 3.0 | 3.0 | 0.00 | 0.00 | 0.00 | 21 | 1007.9 |
| 20260504182759 | 72 | 13 | 0.0 | 3.0 | 0.00 | 0.00 | 0.00 | 22 | 1008.0 |
| 20260504182256 | 71 | 187 | 0.0 | 2.0 | 0.00 | 0.00 | 0.00 | 22 | 1008.0 |
| 20260504181753 | 72 | 279 | 2.0 | 11.0 | 0.00 | 0.00 | 0.00 | 23 | 1008.1 |
| 20260504181250 | 72 | 5 | 6.0 | 14.0 | 0.00 | 0.00 | 0.00 | 22 | 1007.9 |
| 20260504180750 | 73 | 345 | 13.0 | 17.0 | 0.00 | 0.00 | 0.00 | 21 | 1008.0 |
| 20260504180248 | 74 | 27 | 2.0 | 8.0 | 0.00 | 0.00 | 0.00 | 21 | 1008.1 |
| 20260504175745 | 76 | 171 | 2.0 | 4.0 | 0.00 | 0.00 | 0.00 | 19 | 1008.3 |
| 20260504175242 | 75 | 142 | 0.0 | 3.0 | 0.00 | 0.00 | 0.00 | 19 | 1008.1 |
| 20260504174740 | 74 | 337 | 4.0 | 9.0 | 0.00 | 0.00 | 0.00 | 20 | 1008.2 |
| 20260504174237 | 74 | 354 | 6.0 | 11.0 | 0.00 | 0.00 | 0.00 | 20 | 1008.2 |
| 20260504173733 | 74 | 354 | 2.0 | 13.0 | 0.00 | 0.00 | 0.00 | 20 | 1008.4 |
| 20260504173231 | 75 | 349 | 14.0 | 18.0 | 0.00 | 0.00 | 0.00 | 20 | 1008.2 |
| 20260504172727 | 73 | 340 | 8.0 | 13.0 | 0.00 | 0.00 | 0.00 | 22 | 1008.1 |
| 20260504172224 | 74 | 329 | 4.0 | 9.0 | 0.00 | 0.00 | 0.00 | 19 | 1008.2 |
| 20260504171720 | 73 | 80 | 5.0 | 7.0 | 0.00 | 0.00 | 0.00 | 19 | 1008.2 |
| 20260504171217 | 74 | 311 | 4.0 | 6.0 | 0.00 | 0.00 | 0.00 | 19 | 1008.2 |
| 20260504170714 | 74 | 307 | 2.0 | 4.0 | 0.00 | 0.00 | 0.00 | 22 | 1008.4 |
| 20260504170212 | 75 | 123 | 2.0 | 7.0 | 0.00 | 0.00 | 0.00 | 20 | 1008.3 |
| 20260504160130 | 65 | 166 | 0.0 | 3.0 | 0.00 | 0.00 | 0.00 | 34 | 1008.8 |
| 20260504151057 | 59 | 125 | 1.0 | 2.0 | 0.00 | 0.00 | 0.00 | 41 | 1008.9 |
| 20260504150554 | 58 | 186 | 0.0 | 1.0 | 0.00 | 0.00 | 0.00 | 39 | 1009.1 |
| 20260504141020 | 51 | 346 | 4.0 | 4.0 | 0.00 | 0.00 | 0.00 | 48 | 1009.4 |
| 20260504140516 | 50 | 340 | 4.0 | 4.0 | 0.00 | 0.00 | 0.00 | 49 | 1009.5 |
| 20260504130441 | 42 | 221 | 0.0 | 0.0 | 0.00 | 0.00 | 0.00 | 67 | 1009.4 |
| 20260504110328 | 39 | 215 | 0.0 | 0.0 | 0.00 | 0.00 | 0.00 | 69 | 1009.9 |
| 20260504100245 | 39 | 221 | 0.0 | 0.0 | 0.00 | 0.00 | 0.00 | 71 | 1010.1 |
| 20260504081638 | 43 | 217 | 0.0 | 0.0 | 0.00 | 0.00 | 0.00 | 61 | 1010.9 |
| 20260504081135 | 43 | 217 | 0.0 | 0.0 | 0.00 | 0.00 | 0.00 | 60 | 1010.7 |
| 20260504080631 | 43 | 228 | 0.0 | 0.0 | 0.00 | 0.00 | 0.00 | 58 | 1010.9 |
| 20260504080128 | 43 | 246 | 0.0 | 0.0 | 0.00 | 0.00 | 0.00 | 62 | 1011.1 |
| 20260504050444 | 53 | 269 | 0.0 | 2.0 | 0.00 | 0.00 | 0.00 | 43 | 1012.0 |
| 20260504045941 | 53 | 281 | 1.0 | 2.0 | 0.00 | 0.00 | 0.00 | 40 | 1011.8 |
| 20260504045437 | 55 | 191 | 0.0 | 0.0 | 0.00 | 0.00 | 0.00 | 39 | 1011.9 |
| 20260504044933 | 56 | 320 | 2.0 | 6.0 | 0.00 | 0.00 | 0.00 | 39 | 1012.0 |
| 20260504044431 | 57 | 6 | 4.0 | 6.0 | 0.00 | 0.00 | 0.00 | 37 | 1012.0 |
| 20260504043928 | 56 | 331 | 5.0 | 8.0 | 0.00 | 0.00 | 0.00 | 37 | 1012.0 |
| 20260504043425 | 55 | 14 | 2.0 | 3.0 | 0.00 | 0.00 | 0.00 | 38 | 1012.1 |
| 20260504042917 | 56 | 332 | 2.0 | 4.0 | 0.00 | 0.00 | 0.00 | 37 | 1011.8 |
| 20260504042413 | 57 | 192 | 2.0 | 3.0 | 0.00 | 0.00 | 0.00 | 36 | 1011.3 |
| 20260504041910 | 57 | 179 | 2.0 | 3.0 | 0.00 | 0.00 | 0.00 | 35 | 1011.2 |
| 20260504041406 | 59 | 169 | 2.0 | 3.0 | 0.00 | 0.00 | 0.00 | 34 | 1011.6 |
| 20260504040902 | 60 | 186 | 2.0 | 3.0 | 0.00 | 0.00 | 0.00 | 32 | 1011.4 |
| 20260504040400 | 60 | 156 | 3.0 | 6.0 | 0.00 | 0.00 | 0.00 | 31 | 1011.8 |
| 20260504035855 | 60 | 161 | 3.0 | 7.0 | 0.00 | 0.00 | 0.00 | 31 | 1011.6 |
| 20260504035353 | 61 | 42 | 1.0 | 3.0 | 0.00 | 0.00 | 0.00 | 31 | 1012.3 |
| 20260504034850 | 62 | 69 | 6.0 | 7.0 | 0.00 | 0.00 | 0.00 | 30 | 1011.7 |
| 20260504034347 | 61 | 159 | 6.0 | 10.0 | 0.00 | 0.00 | 0.00 | 30 | 1011.3 |
| 20260504033844 | 61 | 337 | 3.0 | 4.0 | 0.00 | 0.00 | 0.00 | 30 | 1012.0 |
| 20260504033342 | 62 | 211 | 3.0 | 4.0 | 0.00 | 0.00 | 0.00 | 29 | 1011.6 |
| 20260504032838 | 62 | 172 | 2.0 | 3.0 | 0.00 | 0.00 | 0.00 | 27 | 1011.8 |
| 20260504032336 | 63 | 166 | 4.0 | 6.0 | 0.00 | 0.00 | 0.00 | 26 | 1011.3 |
| 20260504031832 | 64 | 180 | 3.0 | 4.0 | 0.00 | 0.00 | 0.00 | 25 | 1011.0 |
| 20260504031330 | 64 | 156 | 2.0 | 4.0 | 0.00 | 0.00 | 0.00 | 24 | 1011.2 |
| 20260504030826 | 63 | 115 | 4.0 | 4.0 | 0.00 | 0.00 | 0.00 | 23 | 1011.1 |
| 20260504030324 | 62 | 178 | 1.0 | 2.0 | 0.00 | 0.00 | 0.00 | 24 | 1011.1 |
| 20260504025820 | 60 | 167 | 1.0 | 2.0 | 0.00 | 0.00 | 0.00 | 27 | 1011.1 |
| 20260504025317 | 60 | 347 | 1.0 | 3.0 | 0.00 | 0.00 | 0.00 | 33 | 1011.1 |
| 20260504024813 | 61 | 192 | 0.0 | 0.0 | 0.00 | 0.00 | 0.00 | 29 | 1011.0 |
| 20260504024309 | 61 | 184 | 0.0 | 1.0 | 0.00 | 0.00 | 0.00 | 28 | 1010.7 |
| 20260504023806 | 60 | 183 | 0.0 | 1.0 | 0.00 | 0.00 | 0.00 | 29 | 1011.0 |
| 20260504023303 | 61 | 260 | 1.0 | 1.0 | 0.00 | 0.00 | 0.00 | 30 | 1011.0 |
| 20260504022759 | 62 | 210 | 0.0 | 0.0 | 0.00 | 0.00 | 0.00 | 29 | 1010.6 |
| 20260504022255 | 62 | 201 | 0.0 | 0.0 | 0.00 | 0.00 | 0.00 | 28 | 1010.9 |
| 20260504021752 | 61 | 207 | 0.0 | 0.0 | 0.00 | 0.00 | 0.00 | 30 | 1010.5 |
| 20260504021250 | 62 | 207 | 0.0 | 0.0 | 0.00 | 0.00 | 0.00 | 30 | 1010.7 |
| 20260504020746 | 62 | 207 | 0.0 | 0.0 | 0.00 | 0.00 | 0.00 | 30 | 1010.6 |
| 20260504020243 | 62 | 214 | 0.0 | 0.0 | 0.00 | 0.00 | 0.00 | 29 | 1010.7 |
| 20260504015739 | 63 | 214 | 0.0 | 0.0 | 0.00 | 0.00 | 0.00 | 29 | 1010.5 |
| 20260504015236 | 64 | 224 | 0.0 | 0.0 | 0.00 | 0.00 | 0.00 | 32 | 1010.6 |
| 20260504014731 | 67 | 330 | 2.0 | 2.0 | 0.00 | 0.00 | 0.00 | 28 | 1010.7 |
| 20260504014228 | 67 | 193 | 0.0 | 1.0 | 0.00 | 0.00 | 0.00 | 24 | 1010.5 |
| 20260504013726 | 67 | 151 | 0.0 | 0.0 | 0.00 | 0.00 | 0.00 | 23 | 1010.6 |
| 20260504013223 | 67 | 191 | 0.0 | 0.0 | 0.00 | 0.00 | 0.00 | 24 | 1010.4 |
| 20260504012720 | 67 | 203 | 0.0 | 0.0 | 0.00 | 0.00 | 0.00 | 23 | 1010.3 |
| 20260504012218 | 68 | 194 | 0.0 | 0.0 | 0.00 | 0.00 | 0.00 | 23 | 1010.9 |
| 20260504011714 | 68 | 179 | 0.0 | 0.0 | 0.00 | 0.00 | 0.00 | 22 | 1010.5 |
| 20260504011212 | 67 | 194 | 0.0 | 0.0 | 0.00 | 0.00 | 0.00 | 23 | 1010.9 |
| 20260504010707 | 68 | 188 | 0.0 | 0.0 | 0.00 | 0.00 | 0.00 | 24 | 1010.6 |
| 20260504010203 | 68 | 191 | 0.0 | 0.0 | 0.00 | 0.00 | 0.00 | 24 | 1010.7 |
| 20260504005659 | 69 | 181 | 0.0 | 0.0 | 0.00 | 0.00 | 0.00 | 26 | 1010.6 |
| 20260504005156 | 69 | 180 | 0.0 | 0.0 | 0.00 | 0.00 | 0.00 | 25 | 1010.5 |
| 20260504004654 | 69 | 139 | 0.0 | 0.0 | 0.00 | 0.00 | 0.00 | 24 | 1010.9 |
| 20260504004151 | 70 | 200 | 0.0 | 0.0 | 0.00 | 0.00 | 0.00 | 22 | 1010.9 |
| 20260504003648 | 70 | 200 | 0.0 | 0.0 | 0.00 | 0.00 | 0.00 | 22 | 1011.0 |
| 20260504003144 | 70 | 201 | 0.0 | 1.0 | 0.00 | 0.00 | 0.00 | 21 | 1010.6 |
| 20260504002641 | 70 | 179 | 1.0 | 1.0 | 0.00 | 0.00 | 0.00 | 20 | 1011.1 |
| 20260504002139 | 71 | 171 | 0.0 | 2.0 | 0.00 | 0.00 | 0.00 | 21 | 1011.1 |
| 20260504001637 | 71 | 190 | 0.0 | 2.0 | 0.00 | 0.00 | 0.00 | 21 | 1010.9 |
| 20260504001132 | 70 | 187 | 1.0 | 2.0 | 0.00 | 0.00 | 0.00 | 22 | 1010.7 |
| 20260504000630 | 70 | 199 | 0.0 | 2.0 | 0.00 | 0.00 | 0.00 | 21 | 1010.9 |
| 20260504000128 | 70 | 213 | 2.0 | 4.0 | 0.00 | 0.00 | 0.00 | 24 | 1011.1 |
| 20260503235626 | 71 | 184 | 0.0 | 1.0 | 0.00 | 0.00 | 0.00 | 20 | 1011.1 |
| 20260503235122 | 71 | 325 | 1.0 | 3.0 | 0.00 | 0.00 | 0.00 | 18 | 1010.9 |
| 20260503234620 | 71 | 344 | 3.0 | 7.0 | 0.00 | 0.00 | 0.00 | 19 | 1011.1 |
| 20260503234118 | 71 | 330 | 7.0 | 11.0 | 0.00 | 0.00 | 0.00 | 17 | 1011.0 |
| 20260503233614 | 72 | 20 | 7.0 | 8.0 | 0.00 | 0.00 | 0.00 | 16 | 1011.0 |
| 20260503233110 | 72 | 326 | 4.0 | 10.0 | 0.00 | 0.00 | 0.00 | 18 | 1011.1 |
| 20260503232607 | 72 | 343 | 3.0 | 9.0 | 0.00 | 0.00 | 0.00 | 17 | 1011.0 |
| 20260503232104 | 72 | 335 | 3.0 | 6.0 | 0.00 | 0.00 | 0.00 | 18 | 1011.1 |
| 20260503231602 | 72 | 278 | 2.0 | 9.0 | 0.00 | 0.00 | 0.00 | 19 | 1010.9 |
| 20260503231058 | 73 | 333 | 7.0 | 11.0 | 0.00 | 0.00 | 0.00 | 18 | 1010.9 |
| 20260503230555 | 73 | 251 | 2.0 | 3.0 | 0.00 | 0.00 | 0.00 | 18 | 1010.9 |
| 20260503230053 | 73 | 5 | 2.0 | 4.0 | 0.00 | 0.00 | 0.00 | 18 | 1011.0 |
| 20260503225549 | 73 | 332 | 3.0 | 6.0 | 0.00 | 0.00 | 0.00 | 18 | 1010.6 |
| 20260503225044 | 73 | 359 | 3.0 | 6.0 | 0.00 | 0.00 | 0.00 | 17 | 1010.9 |
| 20260503224542 | 73 | 317 | 3.0 | 8.0 | 0.00 | 0.00 | 0.00 | 18 | 1011.0 |
| 20260503224040 | 73 | 351 | 2.0 | 4.0 | 0.00 | 0.00 | 0.00 | 17 | 1010.9 |
| 20260503223538 | 73 | 351 | 3.0 | 6.0 | 0.00 | 0.00 | 0.00 | 19 | 1011.0 |
| 20260503223033 | 73 | 339 | 4.0 | 9.0 | 0.00 | 0.00 | 0.00 | 18 | 1011.0 |
| 20260503222531 | 73 | 350 | 8.0 | 9.0 | 0.00 | 0.00 | 0.00 | 17 | 1011.0 |
| 20260503222029 | 73 | 340 | 9.0 | 11.0 | 0.00 | 0.00 | 0.00 | 17 | 1011.1 |
| 20260503221527 | 73 | 354 | 4.0 | 6.0 | 0.00 | 0.00 | 0.00 | 18 | 1011.3 |
| 20260503221024 | 73 | 35 | 4.0 | 6.0 | 0.00 | 0.00 | 0.00 | 17 | 1011.3 |
| 20260503220520 | 73 | 353 | 7.0 | 9.0 | 0.00 | 0.00 | 0.00 | 17 | 1011.4 |
| 20260503220017 | 74 | 83 | 6.0 | 9.0 | 0.00 | 0.00 | 0.00 | 16 | 1011.7 |
| 20260503215514 | 74 | 344 | 2.0 | 3.0 | 0.00 | 0.00 | 0.00 | 17 | 1011.6 |
| 20260503215011 | 74 | 352 | 2.0 | 4.0 | 0.00 | 0.00 | 0.00 | 17 | 1012.0 |
| 20260503214510 | 75 | 237 | 1.0 | 6.0 | 0.00 | 0.00 | 0.00 | 17 | 1011.8 |
| 20260503214006 | 74 | 3 | 8.0 | 10.0 | 0.00 | 0.00 | 0.00 | 18 | 1012.1 |
| 20260503213504 | 73 | 327 | 10.0 | 15.0 | 0.00 | 0.00 | 0.00 | 18 | 1011.9 |
| 20260503213000 | 74 | 352 | 4.0 | 7.0 | 0.00 | 0.00 | 0.00 | 16 | 1012.1 |
| 20260503212458 | 74 | 306 | 11.0 | 13.0 | 0.00 | 0.00 | 0.00 | 17 | 1012.4 |
| 20260503211955 | 74 | 358 | 8.0 | 11.0 | 0.00 | 0.00 | 0.00 | 16 | 1012.3 |
| 20260503211452 | 75 | 33 | 3.0 | 7.0 | 0.00 | 0.00 | 0.00 | 17 | 1012.5 |
| 20260503210948 | 75 | 16 | 2.0 | 8.0 | 0.00 | 0.00 | 0.00 | 16 | 1012.3 |
| 20260503210445 | 75 | 327 | 2.0 | 2.0 | 0.00 | 0.00 | 0.00 | 16 | 1012.4 |
| 20260503205939 | 74 | 243 | 1.0 | 4.0 | 0.00 | 0.00 | 0.00 | 16 | 1012.3 |
| 20260503205437 | 75 | 223 | 2.0 | 2.0 | 0.00 | 0.00 | 0.00 | 17 | 1012.5 |
| 20260503204933 | 74 | 326 | 3.0 | 8.0 | 0.00 | 0.00 | 0.00 | 17 | 1012.7 |
| 20260503204430 | 75 | 285 | 4.0 | 8.0 | 0.00 | 0.00 | 0.00 | 18 | 1012.8 |
| 20260503203927 | 76 | 302 | 2.0 | 2.0 | 0.00 | 0.00 | 0.00 | 16 | 1012.8 |
| 20260503203425 | 76 | 242 | 1.0 | 1.0 | 0.00 | 0.00 | 0.00 | 15 | 1013.2 |
| 20260503202921 | 75 | 243 | 1.0 | 1.0 | 0.00 | 0.00 | 0.00 | 15 | 1012.9 |